Theta_e
312 313 314 313 314 313 313 313 312 313 312 312 312 312 312 313 314 314 314 314 314 314 314 313 313 313 313 313 313 313 312 304 302 302 301 305 315 319 318 319 321 322 324 311 301 301 299 300 300 302 301 300 299 300 303 303 301 300 294 293 291 293 293 297 297 298 300 299 300 302 305 304 303 307 309 312 310 310 310 321 329 333 333 333 335 338 337 338
312 312 312 313 313 313 313 312 312 312 312 312 312 312 313 312 312 313 313 313 313 313 314 313 313 313 313 312 313 312 308 303 301 301 301 311 323 320 320 322 321 323 318 302 300 299 298 297 299 300 298 295 302 299 303 298 303 296 291 293 292 295 297 300 301 301 300 300 301 303 304 304 304 307 309 307 308 308 307 328 331 330 332 334 335 335 335 336
311 312 313 312 313 312 313 312 312 312 312 312 312 312 312 312 312 312 312 313 312 312 313 313 313 312 312 313 313 312 306 301 300 299 308 319 321 321 322 323 323 322 304 302 302 301 299 298 299 298 296 296 297 296 301 298 299 298 295 293 294 298 298 300 302 302 303 302 302 303 304 303 306 307 310 307 307 310 307 324 328 327 327 330 332 333 334 335
311 311 311 312 312 312 312 312 312 312 312 312 312 311 312 313 313 312 312 312 313 313 312 313 313 312 312 312 312 308 303 299 297 303 310 320 320 321 322 322 321 314 305 305 303 302 301 300 299 299 296 295 297 299 296 298 295 295 294 293 296 299 297 299 302 303 303 304 303 303 305 303 305 308 308 307 305 306 308 317 328 326 329 330 332 332 333 333
311 312 312 311 312 312 312 311 311 311 312 312 312 312 313 313 313 312 312 312 312 312 312 312 312 312 312 312 311 305 299 288 297 309 313 319 319 319 322 323 321 307 306 304 303 302 300 298 297 297 296 291 297 298 298 298 299 296 294 297 298 297 298 301 302 303 303 305 303 303 302 303 306 306 307 307 304 304 308 311 330 332 332 331 331 332 332 332
310 311 311 311 311 311 311 312 312 311 311 312 312 312 313 313 313 313 312 312 312 312 312 312 312 312 312 312 306 303 296 281 304 309 320 321 320 319 321 323 321 311 307 302 300 298 296 295 295 292 291 293 292 292 297 298 300 292 296 296 297 298 297 301 302 302 303 302 302 302 304 305 304 304 307 308 307 307 312 313 314 334 334 333 333 332 331 330
311 310 310 311 311 311 311 312 311 311 311 311 312 312 312 313 313 313 313 312 312 311 312 311 312 312 311 310 304 301 295 296 303 309 323 322 322 321 321 322 320 311 303 299 298 296 295 293 293 292 292 291 292 293 296 298 302 297 293 296 296 297 297 300 301 302 302 302 302 304 306 303 304 301 306 306 309 311 311 313 315 324 335 334 331 332 331 331
311 311 310 310 310 311 311 311 311 311 312 312 311 311 312 312 312 312 313 313 312 311 311 312 311 311 311 303 298 295 294 294 302 310 324 325 322 321 321 315 309 306 303 299 297 295 295 292 291 295 291 290 293 295 298 297 299 297 296 298 297 297 298 299 301 300 301 301 303 304 302 303 304 304 305 305 308 311 312 312 314 317 334 332 331 331 331 331
310 310 310 310 310 310 311 311 310 311 311 312 311 311 311 311 311 312 312 312 312 312 311 311 311 311 311 302 296 290 290 303 308 313 320 320 317 315 314 307 308 302 299 297 296 296 295 291 293 294 289 291 294 292 295 294 292 297 297 300 300 298 298 298 299 300 301 302 302 301 302 304 305 307 303 305 306 310 313 312 314 332 332 330 330 331 331 331
310 310 310 310 310 310 310 310 311 310 311 310 311 311 311 311 311 311 312 312 311 311 311 311 310 311 303 298 294 285 295 306 312 316 318 314 313 311 308 306 301 300 297 296 295 295 293 293 295 296 295 292 294 292 294 294 293 299 298 298 297 297 297 298 297 299 301 301 302 299 299 301 305 304 299 306 307 308 310 324 329 331 330 330 330 331 332 332
309 309 310 310 310 310 310 310 310 310 310 311 311 311 311 311 311 311 311 311 311 311 311 311 310 308 299 299 289 284 302 306 304 305 309 306 305 304 302 302 301 300 298 296 295 296 297 296 298 297 295 291 293 292 293 294 298 298 298 297 297 298 298 298 297 297 299 299 302 301 299 301 302 302 301 304 308 310 312 326 329 330 330 330 331 331 333 332
309 309 310 310 309 310 310 310 310 310 310 310 311 310 310 310 310 311 311 311 311 312 311 310 310 305 300 297 293 292 305 305 305 303 304 304 303 303 302 302 301 300 298 295 296 297 297 297 296 295 288 295 288 293 292 297 295 295 295 291 294 295 294 297 296 297 298 298 302 302 299 297 299 298 303 305 307 311 318 327 328 329 330 330 331 332 332 332
309 309 309 309 309 309 309 310 310 311 310 310 310 310 310 310 310 311 311 311 311 312 312 310 310 307 299 290 294 302 305 305 304 304 305 305 304 303 302 302 302 301 300 297 296 297 298 297 297 292 294 293 291 287 294 297 295 296 295 293 292 292 291 295 297 297 297 298 301 301 290 294 297 300 303 305 306 313 320 326 328 328 329 329 330 331 331 333
308 309 309 309 309 309 309 309 310 310 310 310 310 310 310 310 311 311 311 311 312 312 312 312 309 304 298 292 299 304 305 306 306 304 303 306 303 302 302 302 302 302 301 299 298 298 298 297 296 295 297 291 289 298 294 294 296 290 293 293 288 287 287 294 295 296 294 299 299 300 290 293 298 300 303 305 306 312 315 325 326 328 328 329 330 330 331 333
308 309 308 309 309 309 309 309 310 310 310 310 310 309 310 310 311 311 312 312 312 312 312 311 306 299 293 294 303 307 317 311 304 304 306 304 302 301 302 302 301 301 301 301 299 299 299 298 295 292 289 296 295 292 289 289 290 291 287 284 288 286 288 293 296 296 293 297 299 296 291 293 297 300 303 305 305 305 315 322 326 328 329 329 329 330 332 333
308 308 308 308 308 308 309 309 310 310 310 310 310 310 310 310 311 311 312 311 312 312 311 301 302 298 293 290 298 313 305 303 303 308 308 306 304 300 301 298 298 300 299 298 300 300 299 297 292 290 291 293 289 285 285 285 286 288 286 284 285 286 288 290 294 296 297 296 297 295 290 294 296 301 303 304 304 303 303 316 322 327 328 329 329 330 331 333
308 308 308 308 308 308 308 309 309 309 309 309 309 309 309 310 311 312 312 312 311 310 305 297 300 301 288 300 308 300 298 301 306 306 307 307 305 303 299 296 295 295 296 296 297 298 297 294 295 293 293 287 287 288 282 280 281 283 286 284 287 286 288 286 293 296 296 295 292 295 293 293 296 299 302 303 304 302 302 307 320 325 328 329 329 330 330 332
308 307 308 307 307 307 308 309 309 309 309 309 308 307 305 309 312 310 309 310 310 306 306 305 302 296 292 300 294 298 303 301 303 303 303 306 306 302 297 294 295 294 293 291 293 292 294 289 292 283 286 286 286 283 280 277 281 281 283 282 284 288 289 288 288 293 295 295 292 293 293 294 295 295 299 303 304 302 301 309 319 325 328 328 329 329 330 331
307 307 307 307 307 307 308 308 308 308 308 308 307 308 309 312 307 305 304 304 298 292 289 290 291 283 284 292 300 301 301 303 305 301 297 300 302 301 298 298 296 292 288 286 286 290 290 288 290 284 282 282 283 284 283 284 286 285 286 285 286 285 286 288 292 295 295 292 292 292 290 293 295 296 297 299 304 302 301 307 319 324 327 328 329 330 330 331
307 307 307 307 307 307 307 307 308 308 308 305 302 301 301 295 294 292 300 301 296 295 295 296 297 297 297 298 298 304 306 305 298 299 298 300 299 296 295 294 293 292 288 284 285 286 290 281 280 281 283 284 286 286 287 287 287 287 287 286 285 286 288 292 293 294 296 293 291 292 293 293 294 296 297 297 298 302 301 304 316 322 325 327 329 330 330 331
307 307 307 307 307 307 307 307 307 308 308 303 300 297 291 292 288 286 293 295 297 298 297 298 298 297 296 299 301 299 295 297 299 298 300 303 299 295 291 291 289 285 285 287 285 289 289 280 281 284 285 286 287 288 287 287 288 286 285 285 285 286 285 290 291 295 295 292 291 292 292 293 294 295 297 298 297 298 301 302 314 317 321 325 328 329 331 332
307 307 306 307 307 307 307 307 307 307 307 302 299 297 300 298 299 300 296 289 295 298 297 297 299 296 300 300 301 301 299 294 295 298 301 300 295 290 290 290 287 284 286 287 285 283 280 280 283 285 288 288 288 288 288 287 286 286 285 284 283 284 288 290 291 293 294 292 289 291 290 292 294 295 296 297 298 298 300 300 312 315 316 322 327 329 331 332
307 306 306 307 307 307 307 307 306 307 301 298 299 300 298 302 304 304 300 293 290 297 296 296 294 295 296 300 301 302 294 292 291 296 297 299 293 292 291 287 286 286 286 286 281 280 278 281 285 288 288 287 287 287 287 286 286 285 284 282 281 285 284 282 289 291 293 291 289 291 290 291 293 295 296 297 299 299 300 302 305 315 316 319 325 328 330 331
306 306 307 307 307 307 307 306 305 302 299 301 300 301 305 304 303 302 295 285 286 292 296 297 297 296 296 295 301 298 294 294 293 293 302 297 291 293 290 289 287 286 283 284 284 281 281 285 288 287 287 286 285 286 285 284 282 285 285 284 283 284 285 285 286 290 291 292 292 290 289 288 290 290 293 297 299 300 300 301 301 310 316 319 325 327 330 330
306 307 306 306 307 307 306 306 299 300 302 301 302 304 304 305 304 302 293 288 289 289 299 298 300 298 299 306 301 295 296 296 296 298 300 297 294 291 289 292 288 284 285 286 285 283 283 287 289 287 286 285 284 284 285 285 282 283 286 286 286 287 286 287 288 287 285 285 290 288 281 283 287 290 292 295 297 297 300 299 299 301 308 314 320 324 328 330
306 306 307 307 307 306 306 298 297 300 300 298 303 306 307 305 304 302 292 283 280 289 297 288 298 291 301 295 299 295 295 289 296 297 300 300 302 295 293 287 290 283 286 286 284 284 284 288 287 285 285 284 284 283 285 286 283 281 283 288 288 288 287 287 286 286 281 279 287 291 281 277 284 288 291 293 295 296 298 298 299 300 304 310 317 322 325 328
306 306 306 307 306 306 297 293 300 300 297 300 305 307 307 307 306 299 287 280 275 290 288 293 293 293 299 299 300 299 282 287 300 300 298 303 298 300 289 286 289 289 289 290 284 280 287 286 285 285 284 283 282 281 285 286 283 281 288 289 288 287 286 286 287 286 284 288 289 289 287 280 279 285 292 294 294 295 296 296 297 300 300 306 313 321 323 326
306 306 306 307 306 306 298 300 298 297 300 304 307 307 307 305 303 297 283 271 272 294 289 292 295 300 300 301 301 294 294 298 290 295 301 304 302 297 292 288 287 287 289 286 277 285 287 284 284 282 283 281 280 284 286 288 285 285 289 289 288 288 287 287 286 285 285 284 281 285 287 282 280 285 290 293 291 292 294 295 297 298 300 302 309 317 322 326
306 306 307 307 307 307 303 299 298 297 303 306 307 307 307 303 297 286 276 270 288 290 302 292 302 298 299 301 296 296 295 297 289 296 300 302 305 297 290 292 290 289 290 287 282 284 288 287 287 287 285 282 285 285 286 287 284 288 290 290 290 289 288 287 285 285 284 282 278 282 286 279 279 285 287 290 291 291 293 295 297 298 299 301 305 313 320 326
306 306 307 307 304 301 298 300 298 303 305 306 306 306 304 299 288 279 276 275 292 283 296 297 295 291 296 292 292 295 292 294 296 298 298 294 299 301 296 299 291 288 286 289 286 287 288 293 294 289 285 287 287 288 289 289 288 290 288 287 287 287 286 287 285 283 282 277 280 284 286 283 277 283 286 286 289 293 295 296 298 299 300 300 305 310 319 325
307 307 307 307 297 301 301 296 300 305 305 306 306 303 297 291 279 275 272 281 292 290 296 294 291 296 291 289 287 293 291 292 293 294 290 294 292 294 293 290 296 288 285 284 284 287 288 289 287 288 291 290 289 287 290 290 290 288 284 283 283 282 283 281 281 282 275 275 283 286 285 286 277 281 288 291 293 295 296 295 296 298 299 299 304 309 318 325
306 306 307 304 303 304 296 296 303 308 306 306 304 296 287 273 278 275 275 295 278 283 286 286 292 291 291 292 289 288 287 290 293 292 288 288 286 284 288 282 286 278 278 278 279 285 283 284 287 288 293 290 286 284 285 287 287 285 283 283 278 274 276 272 277 273 272 274 282 287 287 283 282 285 290 292 293 295 297 298 298 298 299 299 305 310 318 325
306 306 307 306 306 300 302 304 306 306 304 304 299 289 280 271 270 280 282 284 274 289 285 292 290 291 291 289 285 288 291 285 292 290 292 291 288 287 290 287 289 284 274 279 276 278 280 285 286 287 288 291 289 281 279 279 282 283 281 282 277 272 272 270 274 276 277 280 286 285 288 282 287 289 293 293 295 296 297 299 300 299 299 300 305 311 318 324
305 306 302 305 305 304 306 307 308 307 303 301 292 286 279 275 275 291 285 282 284 292 292 289 290 291 290 283 286 290 283 290 289 289 290 284 285 279 283 288 289 283 283 280 275 276 270 274 281 285 280 289 288 286 284 281 282 283 284 282 280 278 276 270 274 270 272 275 281 288 283 280 282 284 292 295 297 298 299 300 300 301 301 302 306 311 319 323
305 304 302 302 303 306 306 307 307 306 300 295 285 279 275 274 279 278 278 280 287 290 288 292 288 287 284 286 290 291 288 282 291 289 287 284 279 281 280 282 287 287 285 278 281 278 278 277 283 288 287 288 285 288 288 285 283 284 284 286 282 278 283 276 278 278 277 277 277 281 281 287 286 293 297 297 296 295 298 299 300 299 300 302 305 309 318 323
303 301 305 300 304 307 307 308 307 304 298 289 279 278 276 280 275 281 282 290 290 285 287 289 288 281 281 282 289 287 292 285 288 286 285 285 285 282 286 286 285 288 283 278 280 276 279 276 286 288 289 286 286 288 288 288 277 282 283 278 282 288 285 279 278 283 282 278 275 281 285 290 293 293 294 295 295 296 296 298 299 299 300 303 307 311 319 323
298 301 299 303 306 309 309 308 308 299 294 285 280 277 280 286 290 289 294 290 289 289 284 282 283 281 280 280 283 285 286 288 285 283 278 286 281 285 286 287 291 288 288 284 277 285 275 275 285 284 283 288 289 289 289 289 288 284 278 281 289 293 289 281 274 277 276 273 276 283 282 284 285 280 292 293 293 294 294 296 299 299 300 303 307 313 319 323
297 298 302 303 306 308 307 305 302 297 292 284 281 288 288 284 292 292 295 293 291 289 284 282 284 285 282 281 282 285 287 282 282 284 280 284 278 288 287 287 291 290 290 289 282 282 283 275 281 285 285 287 290 288 286 289 290 285 283 291 282 274 277 281 279 271 271 271 273 277 283 284 285 285 288 290 290 291 293 295 297 298 300 303 306 315 320 323
296 296 295 302 306 308 306 305 300 291 284 280 278 282 288 290 294 294 295 295 293 285 281 284 282 283 281 280 285 287 285 279 284 280 279 282 277 286 287 288 288 292 291 290 284 283 284 273 276 284 284 287 288 285 277 282 287 289 290 285 291 286 282 278 277 281 280 274 272 272 279 277 289 289 291 291 291 292 293 292 293 297 300 304 308 316 320 322
295 294 293 304 307 307 307 303 293 288 282 282 280 280 289 289 293 295 295 294 288 285 282 283 287 283 282 285 287 283 286 285 284 283 283 282 281 289 287 290 287 290 291 291 287 289 281 283 271 279 287 286 279 282 280 281 279 281 282 280 285 286 289 287 286 282 278 275 274 272 272 280 289 293 292 292 293 294 293 294 295 297 301 303 309 316 320 322
296 292 294 305 307 307 304 295 288 285 284 284 286 286 289 289 292 294 295 296 292 294 288 285 285 283 284 285 285 288 285 285 285 281 283 284 283 277 287 289 289 288 292 290 287 289 282 281 276 280 280 278 281 286 286 284 284 281 281 279 282 282 280 277 276 286 284 280 276 275 275 283 292 298 297 294 295 297 298 296 296 298 302 304 308 314 319 322
291 287 294 306 306 304 296 288 284 287 284 283 286 289 289 299 292 292 294 294 291 286 294 289 289 286 285 286 288 288 286 285 285 283 285 282 286 285 288 293 291 293 289 284 286 292 290 286 282 279 280 281 285 288 291 291 287 286 285 282 286 284 285 280 274 277 282 282 285 282 278 280 292 296 297 299 299 301 302 302 299 299 302 305 307 312 319 323
290 289 303 305 306 303 292 283 287 286 284 288 294 294 294 292 291 293 290 292 286 292 289 288 287 286 285 287 289 288 289 285 286 282 284 287 288 291 292 292 293 293 293 290 291 293 293 283 280 280 284 286 288 290 290 291 290 285 285 287 287 284 285 283 281 282 280 281 280 279 277 282 293 298 299 300 301 302 303 304 302 300 303 305 306 311 318 323
291 291 294 306 308 301 290 282 282 284 287 291 291 291 293 292 292 289 288 290 288 286 285 288 288 289 286 290 288 286 290 281 288 287 284 288 287 295 292 292 294 291 291 290 287 292 282 285 282 277 273 276 279 283 285 288 288 283 282 285 288 288 288 288 289 288 281 282 283 279 275 281 293 298 299 300 300 300 302 304 305 302 304 306 307 313 320 324
291 294 294 298 304 299 288 286 285 283 286 286 287 287 288 292 292 291 289 289 292 289 287 287 290 285 286 289 288 289 290 287 284 289 289 290 289 295 293 293 294 291 294 297 298 295 286 283 282 276 272 270 268 268 270 275 280 283 285 286 287 287 287 285 281 283 279 283 285 280 280 288 293 297 298 298 299 299 302 304 305 306 304 307 308 316 321 324
290 282 287 289 294 295 292 294 291 288 284 284 284 287 290 287 290 292 292 291 293 292 289 289 291 292 287 288 285 287 286 291 286 286 288 287 290 293 296 295 293 293 296 301 298 293 283 285 284 282 278 275 278 281 285 288 283 280 283 285 285 287 288 289 288 283 281 283 283 285 286 287 290 293 295 296 298 298 300 302 302 304 306 308 312 318 322 323
291 284 283 282 287 287 286 288 288 287 284 288 281 287 286 287 288 289 293 287 293 292 291 287 287 286 289 287 287 286 289 287 290 289 288 288 292 294 298 296 295 295 302 300 298 293 287 282 284 284 284 284 286 286 289 290 286 284 284 284 286 287 289 288 283 281 286 283 280 287 290 288 289 293 294 296 298 300 300 301 302 304 307 312 317 320 319 323
284 286 289 289 284 281 283 283 288 287 289 289 286 290 286 285 286 284 290 292 292 293 289 290 288 289 290 288 290 284 286 288 287 281 289 291 291 294 293 295 294 296 300 298 298 291 285 280 286 285 285 289 290 289 291 289 289 288 286 285 285 287 288 285 284 286 287 282 281 286 288 287 290 293 295 296 298 300 300 301 303 306 309 313 318 320 321 322
289 289 291 293 284 286 286 288 289 288 287 288 287 288 285 285 284 286 287 287 290 289 292 285 286 289 290 293 290 285 286 284 282 287 287 288 290 290 289 292 295 297 297 294 295 293 286 281 287 288 284 288 290 290 291 289 289 290 288 286 287 288 287 287 287 289 289 288 289 289 289 289 293 294 295 298 302 302 302 303 304 306 308 314 319 320 321 321
286 285 285 291 290 287 288 287 288 287 285 290 283 286 286 286 284 287 289 288 284 287 292 286 287 289 289 290 291 286 289 288 289 286 290 289 290 290 289 290 290 296 297 291 294 293 288 281 288 287 285 286 289 291 291 290 289 288 290 287 287 288 288 288 288 289 290 289 290 290 290 289 293 295 300 303 303 302 302 301 302 306 308 313 318 319 320 321
293 293 292 287 284 286 289 287 285 285 283 285 284 286 287 287 286 288 287 291 288 286 288 287 290 288 289 289 290 291 295 293 291 291 292 292 288 294 290 290 295 291 294 292 291 294 291 284 292 287 282 282 288 288 288 290 289 288 287 286 286 285 284 286 285 288 288 287 289 290 287 287 293 298 301 300 300 300 299 301 303 306 309 311 318 319 320 321
297 297 295 289 282 288 284 286 286 285 280 285 287 287 285 286 288 289 284 291 291 290 290 291 290 288 286 285 286 288 290 290 291 293 295 297 298 298 298 297 296 293 292 293 294 289 290 287 283 282 281 280 286 288 288 288 285 281 281 285 288 287 288 288 289 291 292 293 288 284 286 293 294 300 298 299 300 300 301 303 305 308 310 310 315 320 321 321
Wind_Speed
16 16 17 17 17 17 17 17 17 18 17 18 18 18 17 17 17 17 17 17 18 18 18 20 20 20 21 22 22 21 21 9 14 10 6 9 4 2 3 4 3 4 6 2 4 5 4 6 6 8 5 1 2 1 2 2 3 2 5 9 13 11 14 9 12 9 5 5 5 8 12 14 16 10 6 7 8 4 6 4 5 4 8 1 3 20 21 19
16 17 17 17 17 17 17 17 17 17 18 17 17 17 17 18 18 18 18 18 18 19 19 18 20 20 21 20 21 21 16 10 11 12 15 7 6 7 6 3 5 4 3 2 3 4 4 6 5 7 5 2 1 2 3 3 4 7 4 9 17 12 10 6 9 10 6 10 4 7 10 12 16 13 5 9 13 4 4 4 5 7 8 11 11 15 18 20
17 16 17 17 18 18 18 18 18 17 18 17 17 17 17 17 17 17 17 17 18 18 19 19 20 21 21 21 18 20 11 10 5 3 4 3 8 7 5 5 3 3 2 1 0 1 0 3 5 5 2 1 2 4 2 4 4 8 8 14 16 7 6 10 8 10 12 5 8 12 11 9 11 9 3 10 8 16 10 8 6 11 8 14 11 13 15 17
18 18 18 18 19 19 18 18 18 18 18 18 17 17 17 17 17 17 17 18 17 18 18 19 19 20 20 20 19 13 5 4 1 2 1 3 4 4 5 5 2 2 1 0 1 2 2 3 3 1 2 1 2 3 5 5 4 2 8 12 11 8 9 9 9 12 10 9 9 9 10 14 9 9 6 5 8 12 17 7 14 10 17 15 16 14 13 15
18 18 18 19 19 19 19 19 19 19 19 18 18 17 17 18 17 17 17 17 18 18 18 19 19 20 21 20 20 6 5 2 1 1 2 7 7 7 7 6 5 1 0 1 3 2 2 2 2 1 1 2 1 3 5 5 4 5 10 15 9 4 13 9 11 13 12 13 9 9 12 16 7 4 11 8 12 12 14 14 8 22 19 19 17 15 14 16
18 18 19 19 20 20 20 20 19 20 20 20 19 18 18 18 18 17 18 18 18 18 19 18 19 20 21 20 14 4 0 2 0 2 7 11 10 10 9 7 5 1 1 1 0 3 3 3 2 2 2 1 2 5 3 2 3 10 14 14 10 10 6 5 12 10 11 9 15 14 13 11 7 6 8 15 15 6 10 15 15 14 22 21 21 19 15 16
19 19 20 19 20 20 20 20 21 20 20 20 20 19 19 19 18 18 18 18 17 17 17 18 18 19 20 18 13 3 2 7 2 4 11 11 11 10 10 7 2 0 1 2 1 0 0 3 1 1 1 3 7 7 8 7 8 10 14 11 12 8 15 11 8 10 10 14 15 11 11 12 13 13 5 11 13 14 13 13 20 16 18 22 16 18 22 20
19 20 20 20 20 20 20 20 20 21 20 20 20 20 19 19 19 19 19 18 17 16 15 16 16 17 15 8 7 3 1 7 11 4 12 11 8 8 8 1 1 0 0 3 2 2 1 1 1 0 1 4 2 4 2 6 9 13 15 12 11 8 10 12 14 11 8 11 11 13 14 16 19 13 8 10 12 12 14 14 18 20 21 18 23 19 17 17
20 19 19 20 20 20 20 20 21 20 20 20 20 19 20 19 19 18 18 18 17 15 15 15 15 14 11 3 2 4 4 6 3 5 8 6 8 5 2 2 3 3 2 3 3 4 1 3 1 3 2 4 3 8 8 5 11 10 14 10 10 10 10 9 10 16 18 9 7 9 18 21 21 19 14 14 8 9 13 15 11 15 19 18 21 21 18 16
19 20 20 20 20 22 22 22 22 22 22 22 21 20 20 19 19 18 18 17 17 15 15 14 12 11 5 3 2 1 6 3 4 6 3 3 5 2 3 6 2 1 2 3 4 2 3 4 3 3 2 5 5 8 7 9 11 8 13 12 11 9 9 9 12 14 16 16 13 12 13 18 18 18 10 12 13 8 7 5 12 21 22 20 16 17 18 20
20 20 21 21 22 23 23 23 23 23 22 22 22 22 22 21 20 20 19 18 17 16 14 12 10 7 1 2 2 3 5 2 3 2 2 3 5 4 5 7 3 0 1 5 6 4 4 4 1 2 2 3 6 7 4 6 10 11 12 14 15 13 14 12 13 14 11 15 20 19 17 16 14 12 14 12 9 11 5 7 12 19 22 19 20 19 16 17
21 21 21 22 22 23 23 24 24 24 24 23 23 23 22 22 21 21 20 19 18 16 12 10 10 2 2 1 4 9 3 3 5 4 2 4 4 7 7 6 3 3 2 4 7 6 5 3 4 1 4 6 4 8 8 6 8 8 9 12 12 11 13 12 12 13 12 12 15 18 17 19 16 14 20 16 11 5 8 13 14 16 22 22 19 17 16 17
21 21 22 22 23 24 23 25 24 23 25 25 23 24 24 24 23 22 21 19 15 14 12 10 6 2 0 6 9 11 11 11 12 12 11 4 5 6 5 4 4 5 5 5 6 6 4 4 1 4 1 1 2 4 8 16 12 11 9 7 10 11 13 13 11 12 14 11 12 12 17 17 22 22 24 16 9 4 8 12 14 12 8 10 14 14 14 11
22 22 22 23 23 24 25 25 25 25 25 25 26 25 25 25 23 22 21 18 17 14 10 8 1 2 0 8 6 6 7 6 7 11 11 6 5 6 6 5 4 4 4 5 7 6 6 5 5 6 1 3 3 4 9 8 8 7 8 7 7 7 11 9 8 10 15 11 14 11 16 17 18 22 21 19 10 6 10 15 14 13 11 13 14 11 11 13
22 22 23 23 24 24 25 25 25 25 26 26 27 27 25 25 23 19 19 16 13 11 6 4 1 3 2 9 7 12 18 7 6 11 8 3 3 7 8 7 7 6 6 6 4 5 6 6 4 3 3 1 2 3 6 5 4 5 6 9 6 9 9 9 9 12 13 9 15 11 14 18 20 20 17 18 12 7 9 14 14 14 16 15 11 14 15 15
22 23 23 23 24 25 25 26 25 25 26 27 28 27 26 25 20 16 14 12 12 9 2 1 2 2 2 9 5 11 3 4 5 7 4 7 4 6 8 6 5 6 4 3 6 6 5 4 4 4 3 1 4 4 6 6 6 5 8 8 10 6 9 8 13 10 14 11 11 17 12 14 17 20 17 11 13 11 10 12 10 13 17 16 16 14 14 14
23 23 23 23 24 25 26 25 25 26 26 25 28 27 26 22 17 10 8 7 3 2 5 2 3 3 1 5 5 6 3 3 3 1 1 4 7 8 4 3 2 4 3 4 3 1 2 3 2 3 2 5 3 3 3 6 7 8 4 8 7 10 6 10 6 13 11 12 10 12 16 19 8 13 17 15 16 9 10 12 14 12 13 16 15 16 15 14
22 23 23 23 24 25 25 25 26 25 26 26 23 22 21 25 14 6 4 3 2 2 3 2 2 2 7 2 0 2 4 5 2 4 5 3 8 7 6 3 2 2 3 4 4 0 1 1 2 3 3 6 7 6 8 12 10 10 9 6 8 7 11 9 6 7 12 11 12 11 16 23 18 7 12 18 17 10 10 13 19 17 16 16 16 16 15 15
22 23 23 23 24 25 25 25 26 24 23 25 22 21 15 1 0 2 4 3 2 2 2 1 1 4 1 4 3 5 4 7 11 3 4 5 5 7 2 2 1 1 2 2 4 1 1 2 1 3 9 6 7 8 9 9 9 10 9 8 7 8 7 8 10 11 10 11 12 14 14 19 21 17 10 9 20 19 13 10 16 17 16 15 15 15 14 16
23 22 23 24 25 25 26 25 25 23 22 15 12 10 5 5 3 1 1 1 4 10 13 7 8 7 14 14 12 7 9 10 11 6 3 4 2 5 6 3 2 2 3 3 2 3 1 5 8 10 8 5 6 6 9 11 12 11 12 12 12 10 11 10 12 8 10 11 13 13 18 22 17 19 17 10 8 22 14 11 14 17 15 15 15 14 15 16
23 23 24 25 25 25 25 25 25 22 21 8 6 3 5 7 6 6 11 12 11 10 11 13 12 11 12 5 8 7 8 10 6 9 7 3 4 3 3 3 2 3 5 6 6 3 1 6 11 10 7 8 9 8 7 10 12 13 12 12 13 12 11 10 11 11 8 8 11 10 16 23 19 14 15 14 7 12 21 14 16 17 17 16 18 17 16 16
23 24 25 24 25 25 25 25 24 23 19 3 1 3 2 4 0 2 4 9 13 6 12 13 8 13 12 14 15 8 8 9 16 11 6 7 3 5 3 6 4 7 3 2 2 3 6 10 9 5 9 11 10 9 10 12 12 11 11 11 12 12 9 13 14 16 15 9 9 10 12 16 20 16 12 16 15 9 13 10 18 20 18 16 17 18 17 14
23 24 24 25 25 26 25 23 22 24 4 3 4 2 1 2 1 1 1 4 11 4 6 6 7 13 13 11 11 5 9 11 11 10 4 5 3 9 3 5 5 5 4 4 7 5 7 9 10 9 7 9 10 10 11 12 13 11 8 9 11 8 8 8 11 14 15 8 7 11 14 12 9 13 16 13 17 14 9 8 15 18 22 19 19 18 18 17
23 23 24 24 26 26 25 23 22 6 2 6 2 1 3 2 1 5 5 1 6 10 4 4 7 3 7 5 2 11 9 5 4 8 7 5 5 4 5 6 8 5 6 6 9 9 12 9 4 6 9 10 11 11 11 10 10 10 12 11 9 11 11 10 10 13 11 13 10 11 12 10 5 6 10 13 14 15 13 9 10 18 18 21 19 20 21 21
25 24 25 26 24 26 24 22 4 4 7 4 2 3 3 2 4 4 3 3 2 8 4 2 4 3 3 3 2 3 6 3 9 6 3 2 3 2 6 3 4 7 7 9 7 9 13 9 8 11 9 8 9 10 12 11 10 10 12 12 12 12 11 12 13 16 9 10 11 5 6 10 4 9 13 11 14 18 19 15 11 13 16 15 17 20 19 21
26 26 24 24 25 24 22 4 3 7 8 1 2 5 6 4 3 2 3 2 4 4 1 2 2 1 1 2 4 2 5 7 1 3 4 5 7 7 2 4 4 9 11 8 9 6 7 4 8 11 11 11 11 11 11 10 10 9 8 9 14 15 14 13 14 13 10 9 13 5 7 7 3 9 10 11 14 19 18 16 13 12 17 18 16 17 18 18
25 25 25 25 22 20 7 1 2 8 2 2 4 8 8 6 1 3 2 2 2 2 3 0 1 2 1 3 7 6 5 2 8 12 9 10 10 2 8 5 3 3 3 2 2 6 5 7 8 8 9 10 8 10 11 11 10 10 7 10 11 14 14 14 15 15 10 7 14 12 5 6 6 6 9 14 17 19 20 17 11 12 13 19 18 19 19 19
24 25 26 23 22 13 4 4 8 5 4 5 5 6 6 4 1 3 2 1 2 4 2 3 0 2 3 8 5 4 10 9 9 3 3 2 10 11 9 4 4 2 3 3 11 1 3 3 2 4 3 5 7 7 8 9 10 9 11 14 14 12 12 14 13 13 11 10 14 12 4 7 5 8 7 12 16 20 21 19 16 13 13 17 21 20 20 20
27 27 25 22 21 17 2 4 1 4 4 5 6 8 5 3 6 3 2 1 1 1 4 1 0 1 8 6 6 5 8 1 8 3 6 12 8 3 4 8 7 7 8 5 10 2 2 3 6 6 7 9 7 6 5 3 6 10 15 12 11 11 8 6 7 10 12 7 13 15 6 5 5 5 7 5 14 16 16 19 19 18 15 13 16 20 18 16
28 26 23 19 12 3 3 0 5 7 7 7 8 6 4 2 1 2 3 1 3 5 3 3 3 11 10 13 8 5 8 4 6 4 3 3 1 3 4 3 3 6 8 13 11 4 5 7 9 8 7 5 4 7 10 11 11 11 10 13 15 13 11 9 8 6 8 9 12 18 11 5 7 7 8 5 7 11 13 14 15 17 16 11 12 18 18 17
28 25 20 14 1 2 1 3 8 8 7 7 5 5 2 2 2 1 1 3 3 3 4 2 5 5 10 13 15 8 3 4 5 4 5 0 2 2 2 3 3 2 4 7 10 9 8 9 6 4 6 6 5 9 8 5 7 7 4 4 6 10 6 5 3 3 6 7 10 17 13 10 9 8 8 7 7 13 15 15 16 17 17 13 13 15 16 19
26 23 19 7 4 1 2 4 4 5 4 4 6 3 2 2 3 7 3 3 2 4 4 6 4 5 12 8 5 4 9 7 2 5 5 3 4 1 1 4 1 1 3 3 8 6 9 8 6 12 8 9 5 6 8 7 3 6 3 3 3 3 3 4 4 7 6 8 6 12 10 8 12 9 11 13 11 11 14 17 19 19 18 14 14 16 15 16
25 22 19 4 5 2 4 8 6 7 4 5 4 2 5 5 2 3 3 3 2 0 4 1 8 12 13 11 6 4 3 4 4 3 5 5 3 3 6 5 6 5 2 0 2 3 7 8 11 9 9 6 7 7 3 4 2 3 5 2 2 1 1 3 3 2 4 4 10 12 8 11 1 8 19 22 21 14 13 15 18 18 18 15 14 14 14 16
24 20 7 2 4 6 5 3 5 6 5 4 4 6 3 7 2 3 3 2 5 1 5 3 5 9 4 2 6 6 6 1 1 5 5 1 0 2 1 5 8 4 3 1 1 1 4 6 8 9 6 5 8 10 7 6 3 6 2 2 4 1 2 4 4 4 4 6 9 10 9 4 12 3 5 13 15 13 12 14 14 19 20 17 15 15 16 19
23 13 3 2 2 5 8 8 6 2 4 4 5 4 5 1 2 3 4 2 3 2 4 3 6 4 4 1 3 2 2 4 1 8 4 1 3 2 3 4 9 8 3 2 3 1 9 8 9 6 7 9 9 6 4 4 3 7 5 2 1 5 4 6 2 2 2 7 8 3 4 7 9 4 13 12 5 5 8 12 15 13 13 14 16 17 17 18
11 5 0 2 1 3 5 4 4 1 3 6 4 5 4 1 2 1 3 2 1 3 5 6 4 2 3 3 1 6 4 2 4 4 4 2 5 3 5 4 6 13 8 7 4 4 2 8 4 8 7 4 7 2 3 3 5 3 1 4 5 5 6 4 3 1 1 2 8 3 8 3 3 7 9 11 7 11 8 12 15 16 16 14 17 16 15 16
5 5 2 2 2 2 3 3 2 2 3 3 5 3 2 2 4 2 3 2 3 1 3 10 4 2 4 6 6 7 3 4 3 2 4 4 6 6 3 7 8 11 14 9 3 4 4 6 4 3 10 9 3 4 6 5 4 1 4 6 6 6 4 1 3 1 0 4 6 4 6 4 7 8 6 11 12 12 9 11 17 19 17 18 18 17 17 19
6 3 3 3 4 3 3 3 4 3 2 3 4 3 1 1 3 4 2 1 1 2 1 1 3 5 1 3 7 10 8 3 3 1 5 1 4 3 2 1 8 13 15 7 4 2 3 7 8 8 10 8 7 3 5 5 5 7 8 0 3 2 2 5 0 1 1 4 4 4 6 6 8 9 4 2 4 7 8 12 17 15 16 20 19 17 18 20
2 1 2 2 2 5 3 3 6 4 2 4 2 3 2 5 6 5 7 3 1 3 0 3 2 0 1 2 6 8 4 3 6 4 3 2 1 4 6 4 5 10 11 11 5 2 2 2 6 5 2 4 5 1 4 8 4 4 1 3 1 4 4 3 2 1 3 3 2 6 1 4 5 8 7 9 6 5 8 8 8 11 15 17 17 16 18 18
3 2 2 0 1 4 3 4 4 4 4 2 2 3 2 4 7 8 7 3 2 2 2 2 6 2 2 7 5 6 3 6 6 6 3 4 5 6 5 4 3 7 11 15 7 5 1 4 4 5 3 5 4 2 6 6 5 2 1 1 1 3 4 3 2 2 3 2 2 3 4 5 6 3 5 6 5 6 6 8 8 9 12 16 17 18 19 19
2 1 1 0 2 2 6 6 2 1 1 3 3 4 4 2 5 6 8 4 0 1 2 3 4 4 2 3 4 2 4 5 4 3 4 4 4 5 4 3 4 5 8 9 4 1 1 1 5 6 5 4 7 5 4 4 5 3 7 7 7 3 1 0 7 2 3 3 3 3 7 7 8 2 1 3 5 7 9 8 11 10 15 15 16 18 20 18
2 3 2 1 2 3 3 5 1 1 1 2 5 3 6 8 5 5 4 2 3 1 2 1 2 2 3 5 6 6 6 7 3 3 4 5 4 5 6 4 5 6 10 3 3 4 2 0 2 7 7 9 11 11 8 9 6 8 7 6 7 3 3 2 3 6 3 3 6 7 8 11 2 3 3 6 7 10 9 9 11 13 13 17 19 19 20 22
4 2 3 3 2 4 4 2 2 2 3 5 6 8 3 4 3 3 6 2 4 2 1 1 4 3 5 4 3 5 6 5 5 4 4 4 10 11 8 7 6 10 8 2 5 1 3 1 3 7 8 13 16 15 14 13 11 7 5 4 6 7 7 6 5 3 1 7 5 4 5 9 2 11 13 15 14 15 13 11 11 14 12 16 19 18 19 17
2 3 4 0 0 3 3 1 4 7 5 6 6 9 7 3 3 8 4 7 3 0 2 2 2 5 3 1 2 3 3 3 5 7 7 4 5 14 6 6 9 4 7 9 5 7 2 2 3 4 3 2 4 2 1 3 4 3 3 4 7 5 7 4 2 3 1 6 10 7 8 9 4 13 14 15 17 17 18 18 17 10 15 14 15 16 17 18
4 3 4 3 3 1 1 2 1 5 4 6 8 11 8 2 5 8 4 7 7 1 0 3 3 2 3 2 3 6 5 8 5 5 8 9 6 11 4 4 3 6 6 11 11 8 1 2 2 4 1 3 0 1 3 4 7 3 4 5 9 8 6 3 1 1 2 3 5 4 9 11 12 11 13 15 15 17 17 18 17 17 11 15 14 17 19 19
2 2 5 4 2 1 0 2 1 2 5 4 8 6 3 9 5 5 7 6 3 3 3 1 3 1 2 1 3 3 4 7 9 5 5 6 6 1 3 11 8 5 8 13 15 10 3 2 3 5 3 4 4 6 6 2 2 6 7 8 5 9 7 5 3 4 6 5 7 8 9 15 17 12 12 14 12 14 17 17 19 17 18 11 11 15 18 20
1 2 2 5 5 2 3 2 3 3 5 4 3 3 6 6 10 2 7 4 6 11 2 2 1 2 3 1 4 5 6 6 8 11 13 11 7 8 5 8 7 6 10 10 13 4 2 3 8 7 8 11 8 10 10 8 4 3 5 5 5 5 5 5 5 6 4 4 10 4 4 8 14 12 11 13 13 12 12 15 18 18 17 9 10 13 16 16
2 1 3 0 1 4 7 7 8 11 13 6 3 3 6 10 11 10 8 0 9 6 5 1 0 5 6 7 5 4 3 5 5 4 7 6 7 10 9 9 11 2 9 1 7 3 2 1 3 3 5 8 10 8 6 4 4 3 4 5 7 8 6 6 3 6 5 6 11 12 7 7 12 10 9 11 10 10 11 14 15 16 13 9 4 16 17 19
2 1 1 4 3 3 2 11 11 8 10 6 3 5 9 7 10 5 3 9 8 5 4 9 11 14 16 7 5 5 3 8 7 4 3 8 10 6 4 4 3 6 1 2 6 3 1 3 2 3 4 5 5 3 3 6 2 3 3 7 9 9 9 8 10 9 11 11 12 11 7 11 10 7 10 12 9 8 11 10 12 14 13 6 6 12 17 17
4 3 4 2 2 6 7 4 4 6 6 6 4 5 6 7 10 11 7 4 8 8 11 12 17 17 14 12 4 3 4 5 9 11 10 5 12 3 4 4 3 5 7 5 4 2 3 4 2 3 5 4 4 6 10 12 7 5 6 3 8 9 10 12 9 8 9 9 11 11 9 11 6 3 4 6 9 9 12 14 15 13 11 7 11 14 15 18
2 0 1 5 6 5 4 6 7 7 4 5 7 6 8 8 11 11 9 7 1 8 11 15 18 17 11 4 4 8 8 8 11 18 20 14 10 7 3 4 3 7 2 2 2 1 2 4 0 0 1 4 5 9 10 10 10 10 3 2 3 8 8 5 4 6 6 12 10 4 6 8 11 4 5 6 12 12 13 14 14 12 10 7 13 15 17 19
2 2 1 0 2 4 3 5 5 4 3 3 4 7 4 10 10 12 9 3 4 7 8 13 15 12 11 12 9 10 17 18 18 18 16 15 13 13 11 14 11 9 6 2 3 3 4 2 2 2 6 4 5 6 11 7 1 0 2 4 6 6 6 4 8 8 11 6 3 4 7 8 4 3 5 8 10 13 13 10 12 12 10 9 6 15 20 18
Wind_Direction
356 356 356 355 352 349 348 347 345 340 339 338 336 333 332 334 334 333 333 335 333 332 330 332 330 328 331 333 333 334 330 329 315 319 312 236 239 184 104 160 226 234 265 285 351 27 343 343 355 354 347 60 254 257 227 248 201 148 215 219 233 224 218 198 212 203 221 228 206 214 226 237 250 249 248 270 231 164 129 116 127 70 22 259 135 144 146 133
358 354 353 350 348 347 346 344 340 340 336 337 334 333 331 329 329 331 331 330 330 329 330 331 329 329 330 331 332 333 332 313 305 295 244 232 207 178 200 213 222 250 331 45 34 20 10 337 347 351 352 337 257 220 153 253 180 196 215 219 231 213 226 176 214 214 211 221 227 216 228 228 239 243 223 233 246 183 151 70 104 77 79 86 118 138 137 134
353 353 350 349 347 346 344 342 340 338 337 332 331 330 329 327 326 325 327 328 328 329 329 328 329 329 330 331 331 334 333 314 308 277 315 209 182 193 203 221 220 331 81 137 297 26 332 292 313 339 316 295 276 246 198 253 188 226 214 222 232 209 217 210 206 219 220 225 220 244 254 230 244 241 156 226 208 246 243 121 103 119 115 130 145 146 141 143
352 351 348 345 344 344 342 340 339 337 336 334 331 328 329 328 327 326 325 326 328 329 328 327 330 329 328 328 334 327 330 288 319 271 263 208 172 207 229 234 243 34 41 21 342 320 296 300 290 290 286 205 283 245 239 225 214 230 224 232 231 199 225 214 210 221 227 219 236 240 247 258 242 238 239 212 214 210 256 184 149 156 148 153 157 161 153 148
349 348 346 344 342 341 341 339 337 336 334 334 331 329 327 329 327 328 325 325 325 327 328 328 331 329 328 328 330 332 306 25 243 327 190 184 199 219 227 236 235 124 127 282 335 291 303 289 318 322 223 290 298 314 249 265 247 307 244 245 247 225 224 210 214 216 218 227 235 239 238 249 252 234 235 221 221 212 211 232 171 157 157 160 162 168 164 163
348 345 344 344 342 340 338 338 337 336 334 331 330 327 326 326 327 326 325 324 325 325 328 330 331 333 330 333 328 321 315 314 342 237 193 188 206 210 226 237 236 145 46 15 165 309 345 342 49 35 342 132 228 232 288 304 240 252 263 258 245 242 261 215 225 220 211 220 229 236 241 260 240 257 214 221 219 206 195 209 202 172 159 168 167 163 169 169
346 344 343 343 339 338 337 336 335 335 333 330 327 325 324 323 326 324 324 323 322 324 325 328 331 333 334 337 317 103 83 275 307 221 174 193 207 212 226 236 262 70 49 9 326 21 327 323 46 243 272 283 276 262 272 276 278 267 258 258 255 246 243 251 256 227 221 223 230 233 248 248 251 242 235 234 231 200 187 200 218 187 184 158 159 174 170 174
345 343 342 340 338 335 335 334 331 331 329 328 325 322 322 321 321 323 322 323 321 322 324 325 327 328 334 340 343 341 7 256 258 173 189 197 206 222 236 278 250 104 104 231 259 285 323 265 232 1 250 221 259 277 280 280 259 256 262 264 268 262 257 251 253 264 251 236 231 237 241 242 249 233 248 242 229 212 199 200 193 201 163 164 166 179 176 171
342 339 338 338 335 333 333 332 331 329 328 326 322 320 318 317 316 316 316 315 318 314 319 321 322 321 334 266 255 316 276 231 269 138 189 190 218 216 192 272 189 166 203 252 227 246 200 266 279 162 246 335 321 304 295 269 270 257 265 278 279 267 263 254 249 248 253 254 237 233 234 241 245 251 238 248 246 231 212 201 185 138 159 171 169 169 172 170
342 339 338 336 334 333 333 332 330 329 327 324 322 319 317 315 313 310 310 310 309 311 311 314 316 329 342 348 314 19 260 316 80 132 208 286 323 308 248 251 229 243 324 285 316 269 194 233 227 286 297 283 238 247 260 256 264 293 291 285 279 286 291 264 244 240 240 247 242 233 239 242 239 247 238 238 239 244 259 184 156 152 162 173 171 173 172 168
341 339 337 336 335 334 332 331 330 328 326 323 321 319 317 314 313 309 306 304 304 304 307 309 314 332 18 11 95 233 257 334 101 60 269 253 260 248 238 229 200 235 287 299 280 256 252 258 264 309 320 223 342 301 291 265 289 286 289 294 281 277 267 268 274 251 234 238 237 241 240 246 250 254 247 238 231 224 179 161 156 159 166 169 170 172 177 176
339 338 336 335 335 333 332 331 330 328 326 324 322 320 316 315 311 309 305 303 302 301 308 311 324 306 305 254 203 225 286 297 333 320 270 275 261 247 252 237 207 211 189 261 280 280 279 277 339 315 235 12 300 341 287 311 317 304 301 291 290 287 274 263 250 258 235 238 226 238 251 248 245 235 251 238 235 193 146 162 169 169 168 171 172 172 174 177
338 337 335 334 333 332 331 330 330 328 327 325 323 321 316 313 310 305 304 303 297 299 307 309 292 282 40 302 226 247 276 292 301 300 294 268 264 273 262 257 254 241 234 233 251 261 277 289 288 300 242 252 291 240 311 309 299 311 295 286 287 270 268 255 257 252 251 238 227 205 241 236 236 234 241 240 243 122 148 165 166 168 174 173 168 173 178 175
337 335 334 334 332 332 331 330 328 327 327 326 324 320 315 309 304 299 294 292 292 292 299 299 294 316 349 253 272 259 262 247 265 286 276 282 310 290 311 294 265 251 208 218 248 247 248 247 241 243 266 246 273 345 292 302 304 280 302 290 255 271 251 244 236 244 246 239 229 210 235 240 234 237 235 242 218 145 172 171 169 164 168 172 173 172 178 184
337 335 335 333 331 330 330 330 329 328 328 326 323 319 311 302 295 288 285 284 278 282 275 255 107 107 232 265 260 260 258 231 254 246 251 277 270 309 280 273 265 252 235 219 236 235 236 248 266 271 262 158 261 290 292 279 295 280 304 261 250 237 262 256 241 234 241 240 227 215 236 236 234 238 234 236 223 167 168 169 168 169 166 171 183 175 176 182
337 336 335 332 331 330 330 329 328 328 329 328 325 319 311 302 295 286 270 252 263 260 263 113 181 162 286 290 269 299 291 130 259 239 232 179 219 222 251 269 282 267 274 279 236 242 225 214 205 203 243 275 239 238 281 316 280 259 234 276 269 255 247 257 241 240 237 247 245 216 238 242 234 235 238 228 232 197 161 176 174 175 173 172 174 181 188 176
339 337 334 332 331 331 330 328 327 328 328 329 328 320 315 306 311 298 240 238 196 194 150 164 148 180 10 238 297 335 304 267 253 317 251 203 204 225 238 272 280 323 326 321 302 193 193 191 193 233 208 216 166 165 245 258 268 265 220 245 246 250 271 251 257 245 241 236 245 235 229 239 241 230 238 238 229 200 179 176 183 182 183 177 181 183 181 178
341 337 336 334 332 330 329 327 326 328 329 328 329 313 309 303 314 90 55 133 164 178 193 322 198 231 264 7 348 258 321 302 103 249 246 220 213 228 224 249 275 306 6 352 333 293 214 246 158 200 236 206 194 186 188 224 219 236 247 257 270 267 248 267 247 248 243 240 239 246 241 240 236 242 231 231 241 206 206 165 184 184 185 182 181 185 183 179
341 338 338 334 332 330 328 326 324 329 331 326 325 318 307 309 9 63 103 119 55 0 6 261 114 135 182 238 264 320 314 312 314 185 224 202 222 221 209 196 200 317 299 77 288 209 242 245 277 224 235 214 215 210 223 230 244 250 259 261 257 262 267 249 257 264 248 240 240 235 243 243 233 228 242 241 228 230 214 170 180 182 183 182 187 186 182 184
340 339 336 334 332 330 328 326 325 329 334 331 338 335 339 4 10 335 339 6 209 233 249 251 202 260 298 287 287 292 304 306 302 273 247 213 168 209 232 183 216 202 203 217 278 263 190 206 219 224 233 229 240 229 233 241 245 259 269 273 270 269 269 271 270 265 232 246 238 232 241 248 241 228 226 236 228 230 205 161 180 181 182 181 186 189 185 189
339 338 337 333 333 329 327 325 324 326 330 318 312 351 27 356 352 336 329 285 242 245 244 247 227 230 241 290 281 299 325 299 223 271 259 190 230 109 218 158 195 232 219 213 196 267 180 225 235 230 225 225 231 232 245 252 251 249 254 260 268 265 266 267 273 277 272 236 244 230 236 245 240 236 224 225 215 224 224 175 178 183 183 185 184 186 186 193
339 337 335 334 331 330 327 325 323 323 325 279 62 45 298 28 179 263 344 322 311 229 240 247 242 257 261 259 263 263 257 276 296 270 243 180 198 194 242 175 177 215 232 225 243 259 260 246 248 231 231 229 228 226 229 242 253 247 246 251 260 263 277 277 276 277 279 280 258 251 242 243 243 232 228 217 223 216 229 190 180 179 190 190 185 183 186 184
338 337 334 334 333 328 328 323 324 319 331 32 357 348 359 280 16 335 101 254 263 264 235 226 233 246 260 264 258 211 239 240 253 280 275 175 170 200 159 196 206 212 199 188 206 215 250 250 250 237 231 237 239 231 233 239 245 251 253 246 248 261 258 274 267 271 271 257 273 268 255 257 254 238 225 218 219 224 221 197 179 187 189 190 188 185 182 183
337 335 334 334 332 329 325 326 319 318 12 311 282 226 259 255 74 54 39 269 311 316 212 211 192 204 239 246 211 171 197 229 205 258 239 160 207 175 203 223 246 227 221 208 213 216 229 238 235 217 224 220 234 232 229 235 245 242 242 249 253 246 245 248 274 278 286 283 274 289 283 261 217 230 231 219 216 227 224 213 164 194 193 191 190 188 182 179
335 334 334 333 334 328 326 321 350 341 316 293 186 292 312 317 67 82 58 319 286 267 208 251 192 214 256 225 125 132 198 244 233 240 237 166 237 186 221 201 211 232 223 221 249 249 251 241 242 253 246 233 233 239 230 226 241 249 243 239 247 252 249 250 259 270 276 287 263 233 283 263 204 221 220 212 212 220 228 218 194 175 201 205 194 190 190 183
334 333 332 334 333 333 319 327 314 334 332 290 312 321 321 354 47 115 97 34 324 278 233 338 146 312 216 20 343 317 317 280 257 221 224 243 231 228 234 229 175 234 224 230 231 237 249 213 226 242 244 242 238 243 240 222 242 243 244 227 237 245 248 248 251 256 256 249 276 219 219 278 266 216 224 217 212 217 228 225 213 184 185 193 196 195 192 187
333 331 331 331 331 334 8 302 316 319 19 309 336 332 328 332 336 73 54 349 17 352 302 225 78 288 331 17 331 324 332 262 322 293 270 29 352 192 246 245 212 220 199 204 226 249 198 223 224 231 245 244 240 243 242 226 236 247 247 240 236 235 237 241 243 249 256 267 270 267 231 257 280 269 219 210 212 216 220 226 211 205 177 187 194 193 192 188
330 329 327 329 325 330 215 303 338 331 254 253 303 322 314 311 68 65 96 58 330 315 358 320 84 287 44 329 315 311 285 319 326 347 62 24 35 358 342 353 313 290 216 187 244 192 16 318 241 276 276 248 237 234 245 216 226 243 240 240 246 245 240 238 235 245 244 242 263 263 248 271 261 271 268 210 204 211 214 219 218 206 193 189 188 194 193 186
329 327 327 325 327 317 207 177 212 254 246 285 314 310 317 36 73 93 103 114 12 350 204 82 129 5 330 319 312 301 305 82 275 325 352 323 79 103 299 355 338 331 317 252 257 289 253 274 297 287 277 271 262 272 284 298 261 244 249 246 247 248 247 245 249 243 247 220 246 258 212 245 271 259 278 249 210 205 209 213 218 213 199 191 191 189 189 186
327 325 324 325 329 13 65 230 229 245 269 292 293 296 328 36 49 35 30 285 22 295 349 278 340 327 324 325 317 322 319 295 269 309 340 289 78 131 249 175 327 5 330 329 314 290 301 308 306 282 256 258 263 267 275 276 259 274 278 252 246 247 247 253 243 239 267 231 236 250 236 199 267 246 242 243 231 210 204 214 215 217 211 178 185 191 181 181
325 321 318 323 307 266 3 285 252 247 257 266 287 339 34 39 93 96 45 245 298 271 320 33 313 309 326 342 329 332 308 296 298 317 309 139 0 67 282 284 18 317 316 304 290 313 308 296 278 270 272 260 245 271 260 261 280 290 283 268 251 255 246 244 255 209 236 247 220 242 238 197 242 270 270 249 255 234 214 216 218 217 214 186 187 192 183 177
323 318 314 315 202 183 147 225 258 326 306 336 355 15 60 24 6 68 257 335 350 287 320 281 290 319 318 324 297 322 325 325 345 324 309 309 313 41 244 187 90 27 286 248 279 358 287 262 274 277 273 266 258 259 267 265 272 286 291 305 227 256 211 252 205 235 232 246 231 245 235 228 227 244 269 265 249 248 230 213 214 212 212 195 189 191 180 179
324 319 316 283 193 197 237 249 298 295 327 10 5 51 57 91 28 281 285 353 253 320 290 217 295 325 317 328 299 323 297 281 348 313 299 302 325 259 189 175 165 158 200 324 349 359 278 277 267 276 296 242 237 238 259 320 259 233 251 246 172 219 259 246 253 216 237 271 249 244 226 239 211 225 231 248 256 238 236 224 205 201 202 197 190 191 179 177
323 319 317 223 186 205 248 266 270 305 9 7 49 28 55 58 278 282 294 225 242 285 300 306 310 301 303 255 298 17 329 201 71 296 323 266 17 282 273 194 176 179 176 310 327 232 306 314 262 223 249 220 217 219 213 203 252 261 195 250 260 272 187 219 228 239 229 227 265 235 225 187 211 237 232 222 234 233 228 229 219 202 199 198 193 192 181 178
318 307 262 285 234 241 234 256 266 305 51 33 47 79 66 352 256 266 280 279 279 290 251 322 313 327 303 221 259 58 158 302 358 325 301 291 287 220 197 215 203 179 136 170 199 169 227 243 261 257 255 292 284 273 211 207 269 251 234 182 280 262 259 247 203 118 275 307 311 306 217 168 215 215 252 260 270 283 251 231 222 215 202 190 196 194 186 183
322 313 345 272 173 263 203 229 254 49 58 37 74 31 36 182 259 205 254 188 290 298 295 302 221 335 265 280 191 359 201 222 325 1 292 231 229 245 200 186 174 184 161 187 174 220 215 248 235 271 285 248 274 299 306 155 206 269 53 192 202 242 214 239 332 242 135 6 265 234 268 276 341 271 238 248 257 269 254 233 218 206 197 185 194 196 182 178
343 324 11 264 220 209 187 188 148 64 57 84 82 354 218 299 214 223 256 224 255 193 27 353 336 46 338 323 326 331 299 231 280 56 300 270 295 226 231 210 169 179 191 157 245 195 168 255 285 317 292 291 235 271 258 236 251 245 280 250 301 305 218 145 208 317 69 240 268 262 235 192 194 248 258 250 253 252 247 232 219 204 192 187 195 191 180 179
324 308 260 259 236 150 119 120 80 56 75 70 47 276 240 258 268 211 234 264 325 39 67 127 269 113 285 327 313 332 322 345 277 300 283 248 257 229 214 250 184 187 197 180 164 251 116 291 279 237 237 267 307 320 320 272 167 179 225 100 341 12 316 310 203 296 299 276 275 287 220 216 191 243 301 291 216 248 236 230 216 203 189 191 196 183 182 181
268 7 7 329 83 129 122 83 71 73 58 46 343 359 263 231 269 287 275 152 135 122 90 226 220 122 180 251 287 308 316 309 307 297 337 261 320 235 208 185 215 208 182 172 201 205 104 164 291 304 160 335 332 39 243 267 303 237 268 298 134 104 177 214 215 188 117 256 358 290 333 237 211 229 242 257 260 242 246 230 230 195 193 195 191 176 180 182
13 31 343 302 88 85 98 70 60 47 67 49 281 240 222 296 283 275 281 196 270 117 236 204 207 298 251 251 309 299 287 269 297 288 193 254 238 269 262 206 193 174 176 183 187 140 213 174 266 277 340 13 324 224 233 215 224 268 132 243 163 190 227 156 273 174 189 196 216 274 318 277 252 227 244 264 280 287 253 250 216 200 202 197 190 179 181 181
295 102 280 169 153 128 63 48 51 45 0 254 183 244 295 243 301 305 325 67 116 285 190 194 179 181 271 314 291 256 289 301 287 273 222 275 211 309 260 212 160 150 161 177 210 186 113 202 245 308 332 257 240 241 269 253 230 195 168 200 190 157 303 299 274 289 236 212 215 247 255 256 257 259 347 340 319 337 316 285 254 219 196 199 197 187 180 179
21 38 300 185 176 72 71 8 299 177 110 283 303 278 300 305 291 302 323 344 122 227 26 132 223 154 249 236 248 324 314 292 253 250 245 232 271 193 268 192 179 136 145 164 181 27 100 340 249 263 249 256 256 251 251 264 252 231 177 212 173 159 140 138 210 276 335 273 340 290 276 265 234 87 93 341 345 342 323 312 276 246 214 197 195 191 183 175
22 232 267 173 201 80 62 341 307 3 304 260 295 295 277 290 283 298 339 311 331 118 26 292 205 175 234 215 323 321 322 281 275 245 257 288 282 278 298 172 134 93 102 108 80 75 90 245 251 266 283 275 270 268 263 264 266 259 231 175 161 188 194 188 186 173 347 312 333 322 273 265 241 7 2 352 350 344 338 339 310 250 233 207 198 185 181 178
289 283 319 247 123 85 77 308 321 320 300 306 318 288 299 251 349 344 340 321 323 299 199 242 304 209 242 243 264 253 317 324 270 249 282 255 278 299 296 192 160 138 145 184 177 166 128 180 207 295 315 312 328 17 195 219 218 228 215 200 188 187 189 185 95 91 301 253 245 284 268 276 322 357 344 347 347 342 334 330 338 308 232 209 192 173 173 172
291 252 227 293 6 70 310 190 315 289 307 317 315 321 326 334 13 316 315 310 314 222 42 255 234 131 252 240 259 256 243 214 287 258 249 265 268 303 355 297 197 160 180 174 160 141 132 172 135 276 26 70 108 257 235 236 218 213 236 209 197 185 177 122 240 125 236 269 268 239 273 282 304 325 337 339 341 336 328 331 329 342 264 218 182 169 168 168
9 17 306 346 357 21 289 306 200 288 308 335 332 297 338 338 330 284 339 308 272 310 193 243 357 86 260 3 271 251 270 206 199 280 315 300 296 338 205 285 255 200 191 161 135 140 160 196 201 212 205 182 216 235 238 237 234 218 224 213 200 194 194 190 121 161 222 277 277 259 265 297 313 340 335 328 334 329 328 324 331 326 325 247 174 167 167 169
283 64 347 333 329 30 290 326 345 6 320 322 314 314 358 343 328 296 37 302 358 324 313 140 199 358 305 209 284 289 252 274 230 252 270 271 271 281 257 249 225 191 144 151 158 146 143 178 213 217 227 240 231 244 251 265 256 227 204 217 189 185 184 188 176 219 201 261 278 274 268 298 299 313 315 318 320 325 316 322 321 326 321 290 184 158 157 159
44 302 82 155 205 281 1 325 347 323 311 342 277 358 356 357 3 337 327 192 316 319 339 308 15 238 254 256 292 284 300 290 290 262 285 259 296 322 337 25 45 60 147 208 188 215 183 246 241 164 231 260 264 259 275 245 220 223 224 204 198 211 214 207 208 220 234 236 252 268 272 286 291 292 293 293 304 306 309 308 310 307 298 305 219 155 160 163
102 317 61 14 16 285 258 271 294 283 292 309 302 19 354 0 341 327 310 313 327 323 12 325 318 322 321 303 192 252 293 335 316 275 263 302 308 324 316 2 96 81 254 189 199 222 25 250 263 275 304 274 279 276 307 314 294 276 218 219 215 205 212 204 224 231 232 237 248 255 261 265 265 280 293 293 298 305 302 303 311 317 310 225 211 169 161 164
14 3 325 357 220 280 280 296 301 319 329 350 13 338 341 338 332 326 325 322 323 320 343 332 319 321 317 313 203 224 239 209 250 280 286 262 296 266 276 196 210 178 146 177 229 184 134 284 286 348 343 344 308 326 337 324 308 292 292 271 214 206 212 214 219 235 248 270 267 255 257 272 255 245 296 296 300 317 321 320 316 308 314 245 200 178 170 171
295 243 303 311 317 293 314 348 348 319 325 352 7 339 332 336 323 321 303 288 249 332 331 317 316 316 313 301 250 239 272 283 267 252 259 264 255 266 273 276 264 293 223 183 246 215 136 262 46 270 348 281 187 194 216 210 243 243 260 315 230 209 213 220 214 219 221 240 251 265 277 273 278 328 278 294 324 327 315 312 310 307 327 317 208 182 178 172
306 277 337 153 292 292 348 316 307 352 8 1 342 323 328 314 305 323 325 220 339 317 310 315 316 316 313 326 311 309 313 302 283 269 259 256 242 248 238 253 265 267 286 218 197 191 187 172 304 2 342 297 296 291 317 323 14 9 288 222 210 214 218 221 228 225 224 212 202 217 237 239 268 279 317 320 307 315 318 313 303 309 320 344 278 201 176 177